DL8JF-13 Weather Reports


time (UTC)temp
C
wind
direction
speed
KPH
gust
KPH
rain 1hr
cm
rain 24hr
cm
rain mn
cm
humidity
%
barometer
mb
20260506103352 11 0 0.0 0.0 0.00 0.00 0.00 61 1002.4
20260506101852 11 0 0.0 0.0 0.00 0.00 0.00 60 1002.4
20260506100352 10 0 0.0 0.0 0.00 0.00 0.00 60 1002.2
20260506094849 10 0 0.0 0.0 0.00 0.00 0.00 61 1002.0
20260506093352 10 0 0.0 0.0 0.00 0.00 0.00 61 1002.1
20260506091852 10 0 0.0 0.0 0.00 0.00 0.00 63 1002.1
20260506090349 10 0 0.0 0.0 0.00 0.00 0.00 63 1002.1
20260506084852 10 0 0.0 0.0 0.00 0.00 0.00 63 1001.7
20260506083352 10 0 0.0 0.0 0.00 0.00 0.00 63 1002.0
20260506081849 10 0 0.0 0.0 0.00 0.00 0.00 63 1002.0
20260506080352 10 0 0.0 0.0 0.00 0.00 0.00 63 1001.9
20260506073349 9 0 0.0 0.0 0.00 0.00 0.00 62 1001.6
20260506071849 9 0 0.0 0.0 0.00 0.00 0.00 62 1001.6
20260506070352 9 0 0.0 0.0 0.00 0.00 0.00 62 1001.8
20260506061849 9 0 0.0 0.0 0.00 0.00 0.00 63 1001.9
20260506060352 9 0 0.0 0.0 0.00 0.00 0.00 63 1001.7
20260506050352 8 0 0.0 0.0 0.00 0.00 0.00 63 1001.4
20260506044852 8 0 0.0 0.0 0.00 0.00 0.00 65 1001.8
20260506043349 8 0 0.0 0.0 0.00 0.00 0.00 65 1001.8
20260506041852 8 0 0.0 0.0 0.00 0.00 0.00 66 1001.8
20260506040352 8 0 0.0 0.0 0.00 0.00 0.00 67 1001.9
20260506034849 8 0 0.0 0.0 0.00 0.00 0.00 68 1002.0
20260506033349 8 0 0.0 0.0 0.00 0.05 0.00 68 1002.1
20260506031849 8 0 0.0 0.0 0.00 0.05 0.00 68 1002.1
20260506030352 8 0 0.0 0.0 0.00 0.05 0.00 69 1002.2
20260506024849 8 0 0.0 0.0 0.00 0.13 0.00 70 1002.4
20260506023349 8 0 0.0 0.0 0.00 0.13 0.00 72 1002.6
20260506021852 8 0 0.0 0.0 0.00 0.13 0.00 72 1002.6
20260506020352 8 0 0.0 0.0 0.00 0.13 0.00 73 1002.7
20260506014849 8 0 0.0 0.0 0.00 0.13 0.00 72 1002.8
20260506013352 8 0 0.0 0.0 0.00 0.13 0.00 72 1002.7
20260506011849 8 0 0.0 0.0 0.00 0.13 0.00 72 1002.7
20260506010349 8 0 0.0 0.0 0.00 0.13 0.00 72 1002.7
20260506004850 8 0 0.0 0.0 0.00 0.13 0.00 72 1003.1
20260506003352 8 0 0.0 0.0 0.00 0.13 0.00 72 1003.1
20260506001849 8 0 0.0 0.0 0.00 0.13 0.00 73 1003.1
20260506000354 8 0 0.0 0.0 0.00 0.13 0.00 74 1003.1
20260505234849 8 0 0.0 0.0 0.00 0.13 0.00 74 1003.4
20260505233349 8 0 0.0 0.0 0.00 0.13 0.00 75 1003.5
20260505231852 8 0 0.0 0.0 0.00 0.13 0.00 76 1003.5
20260505230349 8 0 0.0 0.0 0.00 0.13 0.00 76 1003.4
20260505224849 8 0 0.0 0.0 0.00 0.13 0.00 76 1003.7
20260505223349 8 0 0.0 0.0 0.00 0.13 0.00 75 1003.7
20260505221852 9 0 0.0 0.0 0.00 0.13 0.00 74 1003.7
20260505220349 9 0 0.0 0.0 0.00 0.13 0.00 74 1003.9
20260505214849 9 0 0.0 0.0 0.00 0.13 0.00 74 1004.0
20260505213352 9 0 0.0 0.0 0.00 0.13 0.00 73 1004.1
20260505211852 10 0 0.0 0.0 0.00 0.13 0.00 72 1004.1
20260505210352 10 0 0.0 0.0 0.00 0.13 0.00 71 1004.1
20260505204852 10 0 0.0 0.0 0.00 0.13 0.00 70 1004.0
20260505203352 10 0 0.0 0.0 0.00 0.13 0.00 69 1003.9
20260505201849 10 0 0.0 0.0 0.00 0.13 0.00 68 1003.9
20260505200352 10 0 0.0 0.0 0.00 0.13 0.00 68 1003.9
20260505194849 10 0 0.0 0.0 0.00 0.13 0.00 67 1003.7
20260505193349 10 0 0.0 0.0 0.00 0.13 0.00 67 1003.9
20260505191849 10 0 0.0 0.0 0.00 0.13 0.00 67 1003.7
20260505190353 11 0 0.0 0.0 0.00 0.13 0.00 65 1003.7
20260505184849 11 0 0.0 0.0 0.00 0.13 0.00 64 1003.9
20260505183352 11 0 0.0 0.0 0.00 0.13 0.00 64 1003.9
20260505181849 11 0 0.0 0.0 0.00 0.13 0.00 64 1004.1
20260505180349 11 0 0.0 0.0 0.00 0.13 0.00 64 1004.1
20260505174849 12 0 0.0 0.0 0.00 0.13 0.00 64 1003.9
20260505173349 12 0 0.0 0.0 0.00 0.13 0.00 63 1004.0
20260505171852 12 0 0.0 0.0 0.00 0.13 0.00 64 1004.0
20260505170352 12 0 0.0 0.0 0.00 0.13 0.00 68 1004.0
20260505164849 12 0 0.0 0.0 0.00 0.13 0.00 68 1004.3
20260505163349 12 0 0.0 0.0 0.00 0.13 0.00 68 1003.8
20260505161849 12 0 0.0 0.0 0.00 0.13 0.00 68 1004.5
20260505160349 12 0 0.0 0.0 0.00 0.13 0.00 69 1004.5
20260505153349 12 0 0.0 0.0 0.00 0.13 0.00 71 1004.7
20260505151852 12 0 0.0 0.0 0.00 0.13 0.00 71 1004.4
20260505150352 12 0 0.0 0.0 0.00 0.13 0.00 73 1004.4
20260505140349 12 0 0.0 0.0 0.00 0.13 0.00 78 1004.8
20260505124852 12 0 0.0 0.0 0.00 0.13 0.00 91 1004.9
20260505123352 12 0 0.0 0.0 0.00 0.13 0.00 92 1004.7
20260505121849 12 0 0.0 0.0 0.00 0.13 0.00 93 1004.9
20260505120352 12 0 0.0 0.0 0.00 0.13 0.00 94 1004.9
20260505114849 12 0 0.0 0.0 0.00 0.13 0.00 96 1004.9
20260505113349 12 0 0.0 0.0 0.00 0.13 0.00 96 1005.0
20260505111849 11 0 0.0 0.0 0.00 0.13 0.00 97 1005.0
20260505110349 11 0 0.0 0.0 0.00 0.13 0.00 97 1005.0